Powrót do katalogu

SL-16 DEB

AktywnyLEO
NORAD 22416·DEBRIS·🇷🇺 Russia

Wystrzelony Dec 25, 1992 z Baikonur Cosmodrome

Loading…

Następne Przeloty (najbliższe 24 godziny)

TLE

ŚwieżeSource: Space-Track

Epoka: Sep 14, 2026, 15:15 UTC

1 22416U 92093DH  26257.63561012 -.00000051  00000-0 -23935-5 0  9999
2 22416  70.9606 318.7749 0080440 220.2983 294.3338 14.06321266728208

Śledź SL-16 DEB w czasie rzeczywistym z AllMySat

Download on the App Store